San Jose, Costa Rica

7:42 AM CST on July 23, 2017 (GMT -0600)
Juan Santamaria International

Weather History for MROC - January, 2011

Change the Weather History Date:

Tuesday, January 25, 2011

  Actual Average Record
Temperature  
Mean Temperature 74 °F -  
Max Temperature 84 °F 81 °F 86 °F (2004)
Min Temperature 64 °F 64 °F 58 °F (2017)
Cooling Degree Days 10    
Growing Degree Days 24 (Base 50)    
Moisture  
Dew Point 56 °F    
Average Humidity 54    
Maximum Humidity 88    
Minimum Humidity 27    
Precipitation  
Precipitation 0.00 in 0.01 in - ()
Sea Level Pressure  
Sea Level Pressure 29.91 in    
Wind  
Wind Speed 12 mph ()    
Max Wind Speed 36 mph    
Max Gust Speed 24 mph    
Visibility 8.5 miles    
Events      
Averages and records for this station are not official NWS values.
T = Trace of Precipitation, MM = Missing Value Source: Averaged Metar Reports

Daily Weather History Graph

Daily Weather History Graph

Search for Another Location

Airport or City:

Trip Planner

Search our weather history database for the weather conditions in past years. The results will help you decide how hot, cold, wet, or windy it might be!

Date:

Astronomy

Jan. 25, 2011 Rise Set
Actual Time 5:59 AM CST 5:39 PM CST
Civil Twilight 5:37 AM CST 6:01 PM CST
Nautical Twilight 5:11 AM CST 6:26 PM CST
Astronomical Twilight 4:46 AM CST 6:52 PM CST
Moon 11:20 PM CST (1/25) 10:30 AM CST (1/25)
Length of Visible Light 12h 23m
Length of Day
11h 39m
Waning Gibbous, 59% of the Moon is Illuminated
Jan 25
Waning Gibbous
Jan 26
Last Quarter
Feb 2
New
Feb 11
First Quarter
Feb 18
Full

Hourly Weather History & Observations

Time (CST) Temp. Heat Index Dew Point Humidity Pressure Visibility Wind Dir Wind Speed Gust Speed Precip Events Conditions
12:00 AM 68 °F - 55 °F 55% 29.82 in 12 mi North 35.7 mph - -  
12:00 AM 68.0 °F - 55.4 °F 64% 29.98 in 6.2 mi ESE 11.5 mph - N/A   Unknown
1:00 AM 68.0 °F - 57.2 °F 68% 29.97 in 6.2 mi SE 9.2 mph - N/A   Unknown
3:00 AM 68 °F - 57 °F 60% 29.78 in 12 mi ESE 9.2 mph - -  
5:00 AM 66.2 °F - 57.2 °F 73% 29.94 in 6.2 mi SE 11.5 mph - N/A   Unknown
6:00 AM 66 °F - 57 °F 66% 29.83 in 12 mi SE 12.7 mph - -   Clear
6:00 AM 66.2 °F - 57.2 °F 73% 29.96 in - SE 12.7 mph - N/A   Clear
7:00 AM 69.8 °F - 59.0 °F 68% 29.98 in - SE 11.5 mph - N/A   Clear
8:00 AM 73.4 °F - 57.2 °F 57% 29.99 in - ESE 11.5 mph - N/A   Clear
9:00 AM 78.8 °F - 57.2 °F 47% 30.00 in - SE 11.5 mph - N/A   Clear
10:00 AM 80.6 °F 80.8 °F 57.2 °F 45% 30.00 in 6.2 mi SE 11.5 mph - N/A   Unknown
11:00 AM 80.6 °F 80.5 °F 55.4 °F 42% 29.99 in 6.2 mi East 13.8 mph - N/A   Unknown
12:00 PM 82 °F - 57 °F 32% 29.79 in 12 mi East 11.5 mph - -  
12:00 PM 82.4 °F 82.0 °F 57.2 °F 42% 29.96 in 6.2 mi East 11.5 mph 23.0 mph N/A   Unknown
1:00 PM 82.4 °F 81.4 °F 53.6 °F 37% 29.93 in 6.2 mi East 11.5 mph 23.0 mph N/A   Mostly Cloudy
2:00 PM 84.2 °F 82.8 °F 53.6 °F 35% 29.90 in 6.2 mi East 11.5 mph 24.2 mph N/A   Unknown
3:00 PM 82 °F - 54 °F 27% 29.54 in 12 mi East 9.2 mph - -   Scattered Clouds
3:00 PM 82.4 °F 81.4 °F 53.6 °F 37% 29.89 in 6.2 mi East 9.2 mph - N/A   Mostly Cloudy
4:00 PM 80.6 °F 80.3 °F 53.6 °F 39% 29.89 in 6.2 mi East 10.4 mph - N/A   Mostly Cloudy
5:00 PM 77.0 °F - 53.6 °F 44% 29.90 in 6.2 mi East 6.9 mph - N/A   Mostly Cloudy
6:00 PM 73 °F - 54 °F 40% 29.75 in 12 mi East 8.1 mph - -   Clear
6:00 PM 73.4 °F - 53.6 °F 50% 29.91 in - East 8.1 mph - N/A   Clear
7:00 PM 69.8 °F - 66.2 °F 88% 29.94 in - NNE 5.8 mph - N/A   Clear
8:00 PM 69.8 °F - 57.2 °F 64% 29.96 in - ESE 8.1 mph - N/A   Clear
9:00 PM 68 °F - 57 °F 60% 29.82 in 12 mi East 3.5 mph - -   Clear
9:00 PM 68.0 °F - 57.2 °F 68% 29.99 in - East 6.9 mph - N/A   Clear
10:00 PM 68.0 °F - 57.2 °F 68% 29.99 in - East 5.8 mph - N/A   Clear
11:00 PM 64.4 °F - 55.4 °F 73% 30.00 in - ENE 5.8 mph - N/A   Clear